Regional Weather Roundup
Issued by NWS

Home | Current Version | Previous Version | Text Only | Print | Product List | Glossary On
Versions: 1 2 3 4 5 6 7 8 9 10 11 12 13 14 15 16 17 18 19 20 21 22 23 24 25 26 27 28 29 30 31 32 33 34 35 36 37 38 39 40 41 42 43 44 45 46 47 48 49 50
000
ASUS43 KTOP 101508
RWRKS

WEATHER ROUNDUP FOR KANSAS
NATIONAL WEATHER SERVICE GOODLAND KS
900 AM CST SUN DEC 10 2017

NOTE:  "FAIR" INDICATES FEW OR NO CLOUDS BELOW 12,000 FEET WITH NO
SIGNIFICANT WEATHER AND/OR OBSTRUCTIONS TO VISIBILITY.

KSZ001>006-013>018-027>032-041>047-101600-
NORTHWEST KANSAS

CITY           SKY/WX    TMP DP  RH WIND       PRES   REMARKS
GOODLAND       CLEAR     39   5  24 NW14      30.34R WCI  31
HAYS           SUNNY     41  12  30 NW14      30.27R
HILL CITY      SUNNY     45  12  26 NW15      30.28R
RUSSELL        SUNNY     40  17  39 W10       30.24R WCI  33
$$

KSZ061>065-074>080-084>089-101600-
SOUTHWEST KANSAS

CITY           SKY/WX    TMP DP  RH WIND       PRES   REMARKS
DODGE CITY     SUNNY     39   9  29 NW14      30.33R WCI  31
ELKHART        SUNNY     39  11  31 W10       30.40S WCI  32
GARDEN CITY    SUNNY     36   7  29 W14       30.35R WCI  27
GREAT BEND     SUNNY     44  12  27 NW16      30.27R
LIBERAL        SUNNY     38   7  27 NW15      30.39R WCI  29
PRATT          SUNNY     37  11  33 W10       30.29R WCI  30
$$

KSZ066>073-081>083-090>101-101600-
SOUTHEAST KANSAS

CITY           SKY/WX    TMP DP  RH WIND       PRES   REMARKS
CHANUTE        SUNNY     40  21  46 W9        30.18R
COFFEYVILLE    SUNNY     37  26  64 W5        30.21R
HUTCHINSON     SUNNY     39  17  41 NW13      30.23R WCI  31
MEDICINE LODGE   N/A     39  16  39 W6        30.29R
NEWTON         SUNNY     39  17  41 W10       30.21R WCI  32
PARSONS        SUNNY     34  27  75 SW3       30.21R
WICHITA INTL   SUNNY     44  17  33 NW12      30.23R
WICHITA JABRA  SUNNY     41  17  38 W12       30.21S
WICHITA MCCONL SUNNY     42  15  33 NW8       30.22R
WINFIELD       SUNNY     38  22  52 W8        30.25R
$$

KSZ007>012-019>026-033>040-048>060-102>105-101600-
NORTHEAST KANSAS

CITY           SKY/WX    TMP DP  RH WIND       PRES   REMARKS
CONCORDIA      SUNNY     42  17  36 W15       30.18R
EMPORIA        SUNNY     41  18  39 W10       30.17R
LAWRENCE       SUNNY     38  26  62 NW8       30.13R
MANHATTAN      SUNNY     42  20  41 W7        30.17R
MARYSVILLE     SUNNY     41  21  45 NW10      30.14R
OLATHE IND     SUNNY     38  23  55 W8        30.13R
OLATHE EXE     SUNNY     37  22  54 NW9       30.11R
SALINA         SUNNY     48  17  29 NW14      30.21R
TOPEKA BILLARD SUNNY     39  22  50 W6        30.14R
TOPEKA FORBES  SUNNY     45  20  36 NW14      30.13R
$$




USA.gov is the U.S. government's official web portal to all federal, state and local government web resources and services.